Weather reports worldwide

Advertisment
Malaga/Aeropuerto, Spain (8482): temperature & dewpoint: 03.08.2020 22:00:00 - 09.08.2020 22:00:00 (CEST)Malaga/Aeropuerto, Spain (8482): wind speed: 03.08.2020 22:00:00 - 09.08.2020 22:00:00 (CEST)Malaga/Aeropuerto, Spain (8482): wind direction: 03.08.2020 22:00:00 - 09.08.2020 22:00:00 (CEST)Malaga/Aeropuerto, Spain (8482): reduced air pressure: 03.08.2020 22:00:00 - 09.08.2020 22:00:00 (CEST)Malaga/Aeropuerto, Spain (8482): visibility: 03.08.2020 22:00:00 - 09.08.2020 22:00:00 (CEST)
Date & Time tt [°C] td [°C] ff [km/h] ff [kn] dd ppp [hPa] vv [km]
09.08.2020 22:00:00 27,9 21,3 8 4 SE 1012,7 -
09.08.2020 21:00:00 29,2 21,2 11 6 ESE 1012,5 -
09.08.2020 20:00:00 31,1 18,9 13 7 ESE 1012,6 30
09.08.2020 19:00:00 32,5 15,8 16 9 SE 1012,6 -
09.08.2020 18:00:00 32,7 15,5 11 6 ESE 1013,0 -
09.08.2020 17:00:00 33,5 16,5 11 6 ESE 1013,6 40
09.08.2020 16:00:00 33,2 16,1 15 8 SE 1014,3 -
09.08.2020 15:00:00 32,8 16,7 18 10 SE 1014,7 40
09.08.2020 14:00:00 32,1 19,8 15 8 SSE 1015,0 40
09.08.2020 13:00:00 32,1 19,5 13 7 SE 1015,3 -
09.08.2020 12:00:00 31,9 19,3 11 6 SE 1015,7 -
09.08.2020 11:00:00 30,0 15,1 5 3 WNW 1015,8 40
09.08.2020 10:00:00 26,9 13,7 9 5 W 1016,3 -
09.08.2020 09:00:00 23,5 12,9 13 7 WNW 1016,4 40
09.08.2020 08:00:00 21,9 12,0 9 5 WNW 1016,3 40
09.08.2020 07:00:00 21,7 12,6 11 6 WNW 1016,1 -
09.08.2020 06:00:00 22,7 12,9 9 5 WNW 1016,2 -
09.08.2020 05:00:00 23,3 13,5 13 7 WNW 1016,1 30
09.08.2020 04:00:00 23,1 14,3 13 7 WNW 1016,2 -
09.08.2020 03:00:00 24,2 15,1 15 8 WNW 1016,3 -
09.08.2020 02:00:00 24,7 14,2 13 7 W 1016,7 30
09.08.2020 01:00:00 25,6 18,3 8 4 W 1017,1 -
09.08.2020 00:00:00 25,1 20,4 4 2 SE 1017,5 -
08.08.2020 23:00:00 26,0 21,7 8 4 E 1017,4 30
08.08.2020 22:00:00 26,6 21,0 9 5 E 1016,7 -
08.08.2020 21:00:00 28,5 19,0 9 5 ESE 1016,3 -
08.08.2020 20:00:00 29,7 19,9 11 6 SE 1016,1 40
08.08.2020 19:00:00 30,9 17,3 15 8 ESE 1016,1 -
08.08.2020 18:00:00 32,0 11,8 13 7 SE 1016,6 -
08.08.2020 17:00:00 32,1 14,9 13 7 SSE 1017,1 40
08.08.2020 16:00:00 32,4 13,3 15 8 SE 1017,5 -
08.08.2020 15:00:00 32,0 14,6 15 8 ESE 1017,9 -
08.08.2020 14:00:00 32,4 18,2 15 8 SE 1018,5 40
08.08.2020 13:00:00 32,2 15,5 15 8 SSE 1018,7 -
08.08.2020 12:00:00 32,6 12,5 13 7 ESE 1018,7 -
08.08.2020 11:00:00 32,0 14,3 8 4 E 1018,7 30
08.08.2020 10:00:00 28,6 15,1 9 5 W 1019,1 -
08.08.2020 09:00:00 26,0 16,3 15 8 WNW 1019,7 30
08.08.2020 08:00:00 23,8 16,9 13 7 W 1019,5 20
08.08.2020 07:00:00 23,7 17,2 13 7 W 1019,1 -
08.08.2020 06:00:00 23,1 17,9 11 6 WNW 1018,8 -
08.08.2020 05:00:00 23,8 17,5 13 7 W 1018,0 26
08.08.2020 04:00:00 23,9 19,9 13 7 W 1018,5 -
08.08.2020 03:00:00 24,4 19,3 13 7 WNW 1018,9 -
08.08.2020 02:00:00 25,5 20,8 15 8 W 1019,0 20
08.08.2020 01:00:00 26,3 21,9 9 5 NNW 1019,1 -
08.08.2020 00:00:00 25,2 22,2 8 4 E 1019,6 -
07.08.2020 23:00:00 25,2 21,7 4 2 S 1018,8 25
07.08.2020 22:00:00 26,2 22,1 5 3 ESE 1018,0 -
07.08.2020 21:00:00 27,3 22,2 13 7 SE 1017,4 -
07.08.2020 20:00:00 28,2 22,0 13 7 SE 1016,9 30
07.08.2020 19:00:00 29,0 22,0 15 8 SSE 1017,0 -
07.08.2020 18:00:00 29,6 22,0 15 8 SSE 1017,2 -
07.08.2020 17:00:00 29,6 21,9 16 9 SSE 1017,3 30
07.08.2020 16:00:00 29,9 22,7 16 9 SE 1017,8 -
07.08.2020 15:00:00 29,7 22,4 21 11 SSE 1018,2 30
07.08.2020 14:00:00 29,9 22,6 18 10 SSE 1018,3 30
07.08.2020 13:00:00 29,1 22,3 16 9 SE 1018,3 -
07.08.2020 12:00:00 28,6 22,4 18 10 SSE 1018,3 -
07.08.2020 11:00:00 28,2 22,1 13 7 SE 1018,2 25
07.08.2020 10:00:00 27,6 21,9 11 6 SSE 1017,7 -
07.08.2020 09:00:00 25,9 20,5 8 4 W 1017,3 20
07.08.2020 08:00:00 24,0 18,9 8 4 W 1016,9 20
07.08.2020 07:00:00 24,5 18,5 5 3 WNW 1016,3 -
07.08.2020 06:00:00 24,5 18,6 2 1 NW 1015,8 -
07.08.2020 05:00:00 25,0 20,2 8 4 W 1015,8 20
07.08.2020 04:00:00 25,5 20,6 8 4 WSW 1016,0 -
07.08.2020 03:00:00 25,2 20,9 4 2 SSW 1016,6 -
07.08.2020 02:00:00 25,5 21,0 4 2 S 1017,0 20
07.08.2020 01:00:00 26,4 21,1 5 3 ESE 1016,9 -
07.08.2020 00:00:00 26,9 20,4 11 6 E 1016,9 -
06.08.2020 23:00:00 27,2 19,0 9 5 E 1016,7 20
06.08.2020 22:00:00 27,5 18,8 13 7 ESE 1016,0 -
06.08.2020 21:00:00 28,5 18,7 16 9 ESE 1014,8 -
06.08.2020 20:00:00 30,4 17,8 13 7 SE 1014,0 30
06.08.2020 19:00:00 30,8 18,4 13 7 SE 1013,7 -
06.08.2020 18:00:00 31,6 18,5 16 9 SE 1013,6 -
06.08.2020 17:00:00 31,7 18,8 13 7 SE 1014,0 30
06.08.2020 16:00:00 31,5 18,8 13 7 ESE 1014,4 -
06.08.2020 15:00:00 31,7 19,1 15 8 SSE 1014,8 30
06.08.2020 14:00:00 31,6 19,5 15 8 SE 1014,8 30
06.08.2020 13:00:00 31,2 19,3 15 8 ESE 1014,7 -
06.08.2020 12:00:00 30,5 19,7 15 8 SE 1014,6 -
06.08.2020 11:00:00 30,0 20,1 9 5 SE 1014,4 30
06.08.2020 10:00:00 27,9 18,4 8 4 WNW 1014,1 -
06.08.2020 09:00:00 25,9 18,2 11 6 WNW 1014,0 30
06.08.2020 08:00:00 24,6 18,1 13 7 W 1013,6 25
06.08.2020 07:00:00 23,9 17,4 13 7 W 1013,3 20
06.08.2020 06:00:00 23,5 16,7 11 6 W 1012,9 -
06.08.2020 05:00:00 23,9 17,1 11 6 WNW 1012,9 20
06.08.2020 04:00:00 24,8 17,9 11 6 W 1012,9 -
06.08.2020 03:00:00 25,3 19,3 9 5 W 1013,2 -
06.08.2020 02:00:00 25,1 20,6 0 0 N 1013,3 20
06.08.2020 01:00:00 25,1 20,7 4 2 S 1013,2 -
06.08.2020 00:00:00 26,1 20,8 4 2 ESE 1012,8 -
05.08.2020 23:00:00 26,4 21,0 4 2 ESE 1012,5 20
05.08.2020 22:00:00 27,3 20,3 8 4 SE 1011,8 -
05.08.2020 21:00:00 28,7 20,1 11 6 SSE 1011,3 -
05.08.2020 20:00:00 29,8 19,6 11 6 SE 1011,0 25
05.08.2020 19:00:00 30,4 19,8 15 8 SE 1011,0 -
05.08.2020 18:00:00 30,7 20,3 15 8 SSE 1011,2 -
05.08.2020 17:00:00 31,0 20,3 16 9 SE 1011,4 30
05.08.2020 16:00:00 30,9 19,6 15 8 ESE 1011,7 -
05.08.2020 15:00:00 30,9 20,4 16 9 ESE 1012,1 30
05.08.2020 14:00:00 30,7 21,4 15 8 SE 1012,7 30
05.08.2020 13:00:00 30,7 21,1 15 8 SE 1013,0 -
05.08.2020 12:00:00 30,0 21,8 13 7 ESE 1013,1 -
05.08.2020 11:00:00 29,4 21,6 9 5 E 1013,1 25
05.08.2020 10:00:00 27,8 22,6 4 2 WNW 1013,0 -
05.08.2020 09:00:00 25,8 21,8 9 5 WNW 1012,9 20
05.08.2020 08:00:00 24,7 23,3 4 2 SW 1012,5 12
05.08.2020 07:00:00 25,4 23,6 4 2 SSE 1012,4 -
05.08.2020 06:00:00 25,7 23,8 4 2 ESE 1012,3 -
05.08.2020 05:00:00 25,1 23,0 5 3 SSE 1012,6 15
05.08.2020 04:00:00 25,4 23,0 0 0 N 1012,6 15
05.08.2020 03:00:00 25,3 23,3 4 2 SSW 1012,8 -
05.08.2020 02:00:00 25,4 23,1 2 1 S 1013,2 15
05.08.2020 01:00:00 26,0 23,3 8 4 E 1013,2 -
05.08.2020 00:00:00 26,5 23,5 9 5 SE 1013,0 -
04.08.2020 23:00:00 26,7 23,1 9 5 SE 1012,7 20
04.08.2020 22:00:00 27,5 22,4 11 6 SE 1012,1 -
04.08.2020 21:00:00 28,5 22,0 8 4 SE 1011,7 -
04.08.2020 20:00:00 29,3 22,7 9 5 ESE 1011,7 20
04.08.2020 19:00:00 29,2 22,7 13 7 ESE 1011,9 -
04.08.2020 18:00:00 29,6 23,1 15 8 ESE 1012,3 -
04.08.2020 17:00:00 30,5 23,0 16 9 SE 1012,7 20
04.08.2020 16:00:00 29,6 23,4 15 8 ESE 1013,2 -
04.08.2020 15:00:00 29,3 23,2 13 7 ESE 1013,6 20
04.08.2020 14:00:00 29,0 23,1 16 9 SE 1014,0 20
04.08.2020 13:00:00 29,0 23,7 16 9 SE 1014,2 -
04.08.2020 12:00:00 27,9 23,9 15 8 ESE 1014,2 -
04.08.2020 11:00:00 28,2 23,9 15 8 ESE 1013,9 10
04.08.2020 10:00:00 27,4 23,4 9 5 SE 1013,6 -
04.08.2020 09:00:00 26,4 23,2 4 2 SE 1013,2 8
04.08.2020 08:00:00 25,5 23,2 4 2 ENE 1012,8 8
04.08.2020 07:00:00 25,4 23,2 8 4 SE 1012,5 -
04.08.2020 06:00:00 25,4 23,3 9 5 ESE 1012,2 -
04.08.2020 05:00:00 25,2 23,1 9 5 SE 1012,2 12
04.08.2020 04:00:00 25,4 23,0 9 5 ESE 1012,4 -
04.08.2020 03:00:00 25,3 22,8 11 6 SSE 1012,6 -
04.08.2020 02:00:00 25,9 23,0 13 7 SE 1012,5 30
04.08.2020 01:00:00 26,5 22,4 11 6 SE 1012,4 -
04.08.2020 00:00:00 26,5 21,0 9 5 ESE 1012,2 -
03.08.2020 23:00:00 26,6 20,6 9 5 SE 1011,6 30
03.08.2020 22:00:00 26,7 19,9 8 4 SE 1010,6 -

tt = temperature
td = dewpoint
ff = wind speed
dd = wind direction
ppp = reduced air pressure
vv = visibility

Next stations